Location: Unspecified
(0.0000°N, 0.0000°E)
Time: 13:52:32
(UTC+00:00)

Vanguard 3 - All Passes

Search period start: 01 August 2014 00:00
Search period end: 11 August 2014 00:00
Orbit: 508 x 3279 km, 33.3° (Epoch: 31 July)

Date Brightness Start Highest point End Pass type
(mag) Time Alt. Az. Time Alt. Az. Time Alt. Az.
01 Aug - 06:14:04 10° NNW 06:21:45 25° NE 06:33:00 10° E daylight
01 Aug - 08:23:53 10° NW 08:36:15 77° NE 08:55:44 10° ESE daylight
01 Aug - 10:38:11 10° WNW 10:53:37 49° SSW 11:12:41 10° SE daylight
01 Aug - 13:00:07 10° WSW 13:14:02 23° SSW 13:27:08 10° SSE daylight
01 Aug - 15:29:10 10° SSW 15:36:19 13° S 15:42:24 10° SSE daylight
01 Aug - 17:48:11 10° SSW 17:55:50 18° SSE 18:01:24 10° SE daylight
01 Aug - 20:02:37 10° SW 20:11:04 51° SSE 20:16:02 10° ENE visible
01 Aug - 22:19:08 10° W 22:22:42 18° NW 22:25:34 10° N night (unlit)
02 Aug - 05:06:49 10° NNE 05:08:47 11° NE 05:10:57 10° NE visible
02 Aug - 07:12:34 10° NNW 07:22:37 51° NE 07:39:13 10° ESE daylight
02 Aug - 09:24:36 10° WNW 09:38:19 67° SW 09:58:14 10° SE daylight
02 Aug - 11:42:25 10° W 11:57:28 31° SSW 12:13:45 10° SSE daylight
02 Aug - 14:09:11 10° SW 14:19:36 16° S 14:28:45 10° SSE daylight
02 Aug - 16:33:14 10° SSW 16:41:09 16° S 16:47:20 10° SE daylight
02 Aug - 18:48:49 10° SW 18:58:20 32° SSE 19:04:10 10° E visible
02 Aug - 21:04:19 10° WSW 21:11:25 52° NW 21:15:48 10° NE visible
03 Aug - 06:02:11 10° NNW 06:09:44 29° NE 06:21:22 10° E daylight
03 Aug - 08:12:15 10° NW 08:23:51 89° NE 08:42:57 10° SE daylight
03 Aug - 10:26:57 10° W 10:41:25 42° SSW 10:59:47 10° SE daylight
03 Aug - 12:49:28 10° WSW 13:02:31 21° SSW 13:15:04 10° SSE daylight
03 Aug - 15:16:30 10° SSW 15:25:20 15° S 15:32:39 10° SSE daylight
03 Aug - 17:34:36 10° SSW 17:44:42 24° SSE 17:51:26 10° ESE daylight
03 Aug - 19:50:02 10° SW 19:59:39 73° SSE 20:05:01 10° ENE visible
03 Aug - 22:08:29 10° WNW 22:11:06 13° NW 22:13:19 10° NNW visible
04 Aug - 04:53:51 10° NNE 04:57:10 13° NE 05:01:10 10° ENE visible
04 Aug - 07:00:52 10° NW 07:10:21 59° NE 07:26:45 10° ESE daylight
04 Aug - 09:13:13 10° WNW 09:26:03 57° SSW 09:45:13 10° SE daylight
04 Aug - 11:31:39 10° WSW 11:45:39 27° SSW 12:01:07 10° SSE daylight
04 Aug - 13:57:55 10° SW 14:08:30 16° S 14:17:51 10° SSE daylight
04 Aug - 16:19:40 10° SSW 16:30:03 20° SSE 16:37:41 10° SE daylight
04 Aug - 18:35:43 10° SW 18:47:00 44° SSE 18:53:28 10° E visible
04 Aug - 20:52:28 10° WSW 20:59:46 38° NW 21:04:18 10° NNE visible
05 Aug - 05:50:23 10° NNW 05:57:42 33° NE 06:09:31 10° E daylight
05 Aug - 08:00:46 10° WNW 08:11:36 79° SW 08:30:00 10° SE daylight
05 Aug - 10:15:58 10° W 10:29:24 36° SSW 10:46:48 10° SE daylight
05 Aug - 12:38:53 10° SW 12:51:09 19° SSW 13:03:10 10° SSE daylight
05 Aug - 15:03:38 10° SSW 15:14:16 17° S 15:22:51 10° SE daylight
05 Aug - 17:21:11 10° SW 17:33:24 31° SSE 17:41:05 10° E daylight
05 Aug - 19:37:30 10° SW 19:48:04 85° NW 19:53:50 10° NE visible
06 Aug - 04:41:27 10° N 04:45:28 15° NE 04:50:38 10° ENE visible
06 Aug - 06:49:17 10° NW 06:58:10 70° NE 07:14:07 10° ESE daylight
06 Aug - 09:02:02 10° W 09:13:59 48° SSW 09:32:05 10° SE daylight
06 Aug - 11:21:05 10° WSW 11:34:01 24° SSW 11:48:31 10° SSE daylight
06 Aug - 13:46:18 10° SW 13:57:24 17° S 14:07:16 10° SE daylight
06 Aug - 16:06:13 10° SSW 16:18:47 24° SSE 16:27:37 10° ESE daylight
06 Aug - 18:22:42 10° SW 18:35:31 58° SSE 18:42:33 10° ENE visible
06 Aug - 20:40:45 10° W 20:48:01 30° NW 20:52:41 10° NNE visible
07 Aug - 05:38:41 10° NNW 05:45:40 39° NE 05:57:29 10° ESE visible
07 Aug - 07:49:26 10° WNW 07:59:31 67° SSW 08:16:57 10° SE daylight
07 Aug - 10:05:12 10° WSW 10:17:36 30° SSW 10:33:46 10° SSE daylight
07 Aug - 12:28:13 10° SW 12:39:55 18° S 12:51:32 10° SSE daylight
07 Aug - 14:50:39 10° SSW 15:03:04 20° SSE 15:12:53 10° SE daylight
07 Aug - 17:07:51 10° SW 17:21:57 40° SSE 17:30:26 10° E daylight
07 Aug - 19:25:03 10° WSW 19:36:20 66° NW 19:42:30 10° NE visible
08 Aug - 04:29:19 10° N 04:33:42 18° NE 04:39:41 10° E visible
08 Aug - 06:37:50 10° NW 06:46:06 83° NE 07:01:22 10° SE daylight
08 Aug - 08:51:04 10° W 09:02:07 40° SSW 09:18:52 10° SE daylight
08 Aug - 11:10:42 10° SW 11:22:35 21° SSW 11:35:59 10° SSE daylight
08 Aug - 13:34:19 10° SSW 13:46:16 18° S 13:56:54 10° SE daylight
08 Aug - 15:52:51 10° SSW 16:07:22 30° SSE 16:17:15 10° ESE daylight
08 Aug - 18:09:44 10° SW 18:23:50 74° SSE 18:31:26 10° ENE visible
08 Aug - 20:29:10 10° W 20:36:13 24° NW 20:40:57 10° N visible
09 Aug - 05:27:04 10° NNW 05:33:40 47° NE 05:45:18 10° ESE visible
09 Aug - 07:38:16 10° WNW 07:47:38 55° SSW 08:03:48 10° SE daylight
09 Aug - 09:54:42 10° WSW 10:06:00 26° SSW 10:20:41 10° SSE daylight
09 Aug - 12:17:21 10° SW 12:28:45 18° S 12:40:12 10° SE daylight
09 Aug - 14:37:37 10° SSW 14:51:43 24° SSE 15:02:42 10° ESE daylight
09 Aug - 16:54:34 10° SW 17:10:19 50° SSE 17:19:33 10° ENE daylight
09 Aug - 19:12:41 10° WSW 19:24:28 53° NW 19:31:02 10° NE visible
10 Aug - 04:17:21 10° N 04:21:54 21° NE 04:28:27 10° E visible
10 Aug - 06:26:30 10° WNW 06:34:11 81° SW 06:48:31 10° SE daylight
10 Aug - 08:40:19 10° W 08:50:26 33° SSW 09:05:34 10° SE daylight
10 Aug - 11:00:24 10° SW 11:11:17 19° S 11:23:37 10° SSE daylight
10 Aug - 13:22:05 10° SSW 13:35:02 20° S 13:46:35 10° SE daylight
10 Aug - 15:39:31 10° SW 15:55:46 37° SSE 16:06:36 10° E daylight
10 Aug - 17:56:49 10° SW 18:11:59 90° SE 18:20:10 10° NE daylight
10 Aug - 20:17:47 10° W 20:24:24 20° NW 20:29:04 10° N visible
